Location: LDNL
(36.4545°S, 141.6685°E)
Time: 10:53:18
(UTC+10:00)

Altair - All Passes

Search period start: 08 August 2022 00:00
Search period end: 18 August 2022 00:00
Orbit: 1502 x 1682 km, 47.2° (Epoch: 07 August)

Date Brightness Start Highest point End Pass type
(mag) Time Alt. Az. Time Alt. Az. Time Alt. Az.
08 Aug - 07:02:35 10° NNW 07:11:13 42° NE 07:20:12 10° ESE daylight
08 Aug - 09:05:58 10° WNW 09:15:35 74° SSW 09:25:40 10° ESE daylight
08 Aug - 11:12:22 10° WSW 11:21:46 46° S 11:31:27 10° ESE daylight
08 Aug - 13:18:31 10° WSW 13:28:24 57° SSE 13:38:24 10° E daylight
08 Aug - 15:23:37 10° WSW 15:33:42 69° NW 15:43:44 10° NE daylight
08 Aug - 17:30:49 10° W 17:37:15 19° WNW 17:43:40 10° NNW daylight
09 Aug - 06:37:43 10° NNW 06:46:07 38° NE 06:54:50 10° ESE visible
09 Aug - 08:40:45 10° WNW 08:50:21 78° SSW 09:00:25 10° ESE daylight
09 Aug - 10:47:02 10° W 10:56:25 46° S 11:06:06 10° ESE daylight
09 Aug - 12:53:15 10° WSW 13:03:04 54° SSE 13:13:02 10° E daylight
09 Aug - 14:58:22 10° WSW 15:08:30 74° NW 15:18:37 10° NE daylight
09 Aug - 17:05:09 10° W 17:12:10 21° NW 17:19:10 10° N daylight
10 Aug - 06:12:54 10° N 06:21:02 34° NE 06:29:28 10° ESE visible
10 Aug - 08:15:33 10° WNW 08:25:07 82° SSW 08:35:10 10° ESE daylight
10 Aug - 10:21:43 10° W 10:31:04 47° S 10:40:45 10° ESE daylight
10 Aug - 12:28:00 10° WSW 12:37:44 53° SSE 12:47:39 10° E daylight
10 Aug - 14:33:08 10° WSW 14:43:17 79° NW 14:53:27 10° NE daylight
10 Aug - 16:39:34 10° WSW 16:47:04 24° NW 16:54:35 10° N daylight
11 Aug - 05:48:07 10° N 05:55:57 31° NE 06:04:03 10° ESE visible
11 Aug - 07:50:22 10° WNW 07:59:54 87° SSW 08:09:54 10° ESE daylight
11 Aug - 09:56:23 10° W 10:05:43 48° S 10:15:24 10° ESE daylight
11 Aug - 12:02:44 10° WSW 12:12:24 51° SSE 12:22:16 10° E daylight
11 Aug - 14:07:54 10° WSW 14:18:03 84° NW 14:28:16 10° NE daylight
11 Aug - 16:14:03 10° WSW 16:21:59 27° NW 16:29:54 10° N daylight
12 Aug - 05:23:23 10° N 05:30:53 28° NE 05:38:36 10° ESE visible
12 Aug - 07:25:12 10° NW 07:34:42 89° NE 07:44:39 10° ESE daylight
12 Aug - 09:31:03 10° W 09:40:23 49° SSW 09:50:04 10° ESE daylight
12 Aug - 11:37:28 10° WSW 11:47:04 49° SSE 11:56:52 10° E daylight
12 Aug - 13:42:40 10° WSW 13:52:50 89° NNW 14:03:04 10° NE daylight
12 Aug - 15:48:34 10° WSW 15:56:52 30° NW 16:05:10 10° N daylight
13 Aug - 04:58:43 10° N 05:05:49 25° NE 05:13:06 10° ESE visible
13 Aug - 07:00:04 10° NW 07:09:30 83° NE 07:19:24 10° ESE daylight
13 Aug - 09:05:44 10° W 09:15:03 50° SSW 09:24:45 10° ESE daylight
13 Aug - 11:12:12 10° WSW 11:21:43 48° S 11:31:28 10° E daylight
13 Aug - 13:17:27 10° WSW 13:27:36 87° SE 13:37:50 10° NE daylight
13 Aug - 15:23:10 10° WSW 15:31:46 33° NW 15:40:23 10° N daylight
14 Aug - 04:34:07 10° N 04:40:46 22° NE 04:47:33 10° E visible
14 Aug - 06:34:56 10° NW 06:44:19 78° NE 06:54:09 10° ESE visible
14 Aug - 08:40:25 10° W 08:49:44 52° SSW 08:59:27 10° ESE daylight
14 Aug - 10:46:56 10° WSW 10:56:22 47° S 11:06:04 10° E daylight
14 Aug - 12:52:14 10° WSW 13:02:20 82° SSE 13:12:35 10° ENE daylight
14 Aug - 14:57:47 10° WSW 15:06:38 36° NW 15:15:32 10° NNE daylight
15 Aug - 04:09:38 10° NNE 04:15:43 20° NE 04:21:56 10° E visible
15 Aug - 06:09:51 10° NW 06:19:09 73° NE 06:28:53 10° ESE visible
15 Aug - 08:15:06 10° W 08:24:25 53° SSW 08:34:09 10° ESE daylight
15 Aug - 10:21:40 10° WSW 10:31:01 46° S 10:40:40 10° E daylight
15 Aug - 12:27:02 10° WSW 12:37:05 78° SSE 12:47:19 10° ENE daylight
15 Aug - 14:32:26 10° WSW 14:41:30 39° NW 14:50:39 10° NNE daylight
16 Aug - 03:45:14 10° NNE 03:50:41 17° ENE 03:56:13 10° E visible
16 Aug - 05:44:47 10° NW 05:54:00 68° NE 06:03:37 10° ESE visible
16 Aug - 07:49:48 10° W 07:59:07 55° SSW 08:08:51 10° ESE daylight
16 Aug - 09:56:23 10° WSW 10:05:40 45° S 10:15:15 10° ESE daylight
16 Aug - 12:01:49 10° SW 12:11:50 74° SSE 12:22:02 10° ENE daylight
16 Aug - 14:07:06 10° WSW 14:16:22 43° NW 14:25:43 10° NNE daylight
17 Aug - 03:21:00 10° NNE 03:25:39 15° ENE 03:30:20 10° E visible
17 Aug - 05:19:44 10° NW 05:28:51 63° NE 05:38:22 10° ESE visible
17 Aug - 07:24:31 10° W 07:33:50 58° SSW 07:43:34 10° ESE daylight
17 Aug - 09:31:05 10° WSW 09:40:19 45° S 09:49:51 10° ESE daylight
17 Aug - 11:36:37 10° SW 11:46:34 70° SSE 11:56:43 10° ENE daylight
17 Aug - 13:41:48 10° WSW 13:51:13 47° NW 14:00:45 10° NNE daylight
